Time,TemperatureF,DewpointF,PressureIn,WindDirection,WindDirectionDegrees,WindSpeedMPH,WindSpeedGustMPH,Humidity,HourlyPrecipIn,Conditions,Clouds,dailyrainin,SoftwareType,DateUTC
2013-04-22 00:03:00,31.0,26.0,30.47,ENE,76,6.0,-999.0,82,-99.99,,,-99.99,,2013-04-22 04:03:00,
2013-04-22 00:12:00,31.0,26.0,30.47,ENE,76,6.0,-999.0,82,-99.99,,,-99.99,,2013-04-22 04:12:00,
2013-04-22 00:23:00,31.0,26.0,30.47,ENE,60,6.0,-999.0,82,-99.99,,,-99.99,,2013-04-22 04:23:00,
2013-04-22 00:33:00,31.0,26.0,30.47,East,82,6.0,-999.0,82,-99.99,,,-99.99,,2013-04-22 04:33:00,
2013-04-22 00:43:00,31.0,26.0,30.47,East,82,6.0,-999.0,82,-99.99,,,-99.99,,2013-04-22 04:43:00,
2013-04-22 00:52:00,31.0,26.0,30.46,ESE,105,6.0,-999.0,82,-99.99,,,-99.99,,2013-04-22 04:52:00,
2013-04-22 01:03:00,30.0,25.0,30.46,East,84,5.0,-999.0,82,-99.99,,,-99.99,,2013-04-22 05:03:00,
2013-04-22 01:12:00,30.0,25.0,30.46,East,84,5.0,-999.0,82,-99.99,,,-99.99,,2013-04-22 05:12:00,
2013-04-22 01:22:00,30.0,25.0,30.45,ENE,59,6.0,-999.0,82,-99.99,,,-99.99,,2013-04-22 05:22:00,
2013-04-22 01:33:00,30.0,25.0,30.45,ENE,76,6.0,-999.0,82,-99.99,,,-99.99,,2013-04-22 05:33:00,
2013-04-22 01:42:00,30.0,25.0,30.45,ENE,76,6.0,-999.0,82,-99.99,,,-99.99,,2013-04-22 05:42:00,
2013-04-22 01:52:00,30.0,25.0,30.45,ENE,76,5.0,-999.0,83,-99.99,,,-99.99,,2013-04-22 05:52:00,
2013-04-22 02:02:00,30.0,25.0,30.45,ENE,67,5.0,-999.0,82,-99.99,,,-99.99,,2013-04-22 06:02:00,
2013-04-22 02:12:00,30.0,25.0,30.45,ENE,67,5.0,-999.0,82,-99.99,,,-99.99,,2013-04-22 06:12:00,
2013-04-22 02:21:00,30.0,25.0,30.44,East,80,6.0,-999.0,83,-99.99,,,-99.99,,2013-04-22 06:21:00,
2013-04-22 02:32:00,29.0,25.0,30.44,East,83,6.0,-999.0,83,-99.99,,,-99.99,,2013-04-22 06:32:00,
2013-04-22 02:42:00,29.0,25.0,30.44,East,83,6.0,-999.0,83,-99.99,,,-99.99,,2013-04-22 06:42:00,
2013-04-22 02:52:00,29.0,25.0,30.43,ENE,66,6.0,-999.0,84,-99.99,,,-99.99,,2013-04-22 06:52:00,
2013-04-22 03:01:00,29.0,25.0,30.43,ENE,77,7.0,-999.0,84,-99.99,,,-99.99,,2013-04-22 07:01:00,
2013-04-22 03:12:00,29.0,25.0,30.43,ENE,77,7.0,-999.0,84,-99.99,,,-99.99,,2013-04-22 07:12:00,
2013-04-22 03:21:00,29.0,25.0,30.42,ENE,76,8.0,-999.0,83,-99.99,,,-99.99,,2013-04-22 07:21:00,
2013-04-22 03:32:00,28.0,24.0,30.42,East,89,8.0,-999.0,83,-99.99,,,-99.99,,2013-04-22 07:32:00,
2013-04-22 03:42:00,28.0,24.0,30.42,East,89,8.0,-999.0,83,-99.99,,,-99.99,,2013-04-22 07:42:00,
2013-04-22 03:52:00,28.0,24.0,30.42,ENE,75,8.0,-999.0,83,-99.99,,,-99.99,,2013-04-22 07:52:00,
2013-04-22 04:02:00,28.0,24.0,30.42,ENE,68,7.0,-999.0,83,-99.99,,,-99.99,,2013-04-22 08:02:00,
2013-04-22 04:11:00,28.0,24.0,30.42,ENE,68,7.0,-999.0,83,-99.99,,,-99.99,,2013-04-22 08:11:00,
2013-04-22 04:22:00,28.0,23.0,30.42,ENE,73,6.0,-999.0,82,-99.99,,,-99.99,,2013-04-22 08:22:00,
2013-04-22 04:32:00,28.0,23.0,30.42,East,87,7.0,-999.0,82,-99.99,,,-99.99,,2013-04-22 08:32:00,
2013-04-22 04:42:00,28.0,23.0,30.42,East,87,7.0,-999.0,82,-99.99,,,-99.99,,2013-04-22 08:42:00,
2013-04-22 04:52:00,28.0,23.0,30.42,ENE,69,7.0,-999.0,82,-99.99,,,-99.99,,2013-04-22 08:52:00,
2013-04-22 05:01:00,28.0,23.0,30.41,ENE,67,6.0,-999.0,82,-99.99,,,-99.99,,2013-04-22 09:01:00,
2013-04-22 05:11:00,28.0,23.0,30.41,ENE,67,6.0,-999.0,82,-99.99,,,-99.99,,2013-04-22 09:11:00,
2013-04-22 05:21:00,28.0,23.0,30.40,ENE,61,7.0,-999.0,82,-99.99,,,-99.99,,2013-04-22 09:21:00,
2013-04-22 05:33:00,28.0,23.0,30.41,ENE,78,6.0,-999.0,82,-99.99,,,-99.99,,2013-04-22 09:33:00,
2013-04-22 05:42:00,28.0,23.0,30.41,ENE,78,6.0,-999.0,82,-99.99,,,-99.99,,2013-04-22 09:42:00,
2013-04-22 05:52:00,27.0,22.0,30.41,ENE,72,7.0,-999.0,82,-99.99,,,-99.99,,2013-04-22 09:52:00,
2013-04-22 06:03:00,27.0,23.0,30.40,East,79,8.0,-999.0,83,-99.99,,,-99.99,,2013-04-22 10:03:00,
2013-04-22 06:12:00,27.0,23.0,30.40,East,79,8.0,-999.0,83,-99.99,,,-99.99,,2013-04-22 10:12:00,
2013-04-22 06:22:00,27.0,23.0,30.40,ENE,78,8.0,-999.0,83,-99.99,,,-99.99,,2013-04-22 10:22:00,
2013-04-22 06:32:00,27.0,23.0,30.40,ENE,71,7.0,-999.0,83,-99.99,,,-99.99,,2013-04-22 10:32:00,
2013-04-22 06:42:00,27.0,23.0,30.40,ENE,71,7.0,-999.0,83,-99.99,,,-99.99,,2013-04-22 10:42:00,
2013-04-22 06:52:00,27.0,23.0,30.40,ENE,65,7.0,-999.0,84,-99.99,,,-99.99,,2013-04-22 10:52:00,
2013-04-22 07:02:00,27.0,23.0,30.40,NE,56,7.0,-999.0,84,-99.99,,,-99.99,,2013-04-22 11:02:00,
2013-04-22 07:12:00,27.0,23.0,30.40,NE,56,7.0,-999.0,84,-99.99,,,-99.99,,2013-04-22 11:12:00,
2013-04-22 07:22:00,27.0,23.0,30.41,ENE,68,7.0,-999.0,83,-99.99,,,-99.99,,2013-04-22 11:22:00,
2013-04-22 07:33:00,28.0,23.0,30.41,East,86,7.0,-999.0,82,-99.99,,,-99.99,,2013-04-22 11:33:00,
2013-04-22 07:42:00,28.0,23.0,30.41,East,86,7.0,-999.0,82,-99.99,,,-99.99,,2013-04-22 11:42:00,
2013-04-22 07:52:00,29.0,24.0,30.41,ENE,68,5.0,-999.0,80,-99.99,,,-99.99,,2013-04-22 11:52:00,
2013-04-22 08:02:00,31.0,25.0,30.41,East,79,6.0,-999.0,77,-99.99,,,-99.99,,2013-04-22 12:02:00,
2013-04-22 08:12:00,31.0,25.0,30.41,East,79,6.0,-999.0,77,-99.99,,,-99.99,,2013-04-22 12:12:00,
2013-04-22 08:21:00,31.0,24.0,30.41,ENE,61,8.0,-999.0,75,-99.99,,,-99.99,,2013-04-22 12:21:00,
2013-04-22 08:32:00,32.0,25.0,30.41,ENE,60,9.0,-999.0,76,-99.99,,,-99.99,,2013-04-22 12:32:00,
2013-04-22 08:42:00,32.0,25.0,30.41,ENE,60,9.0,-999.0,76,-99.99,,,-99.99,,2013-04-22 12:42:00,
2013-04-22 08:52:00,32.0,25.0,30.41,East,90,8.0,-999.0,74,-99.99,,,-99.99,,2013-04-22 12:52:00,
2013-04-22 09:01:00,32.0,24.0,30.42,ENE,61,10.0,-999.0,72,-99.99,,,-99.99,,2013-04-22 13:01:00,
2013-04-22 09:11:00,32.0,24.0,30.42,ENE,61,10.0,-999.0,72,-99.99,,,-99.99,,2013-04-22 13:11:00,
2013-04-22 09:22:00,32.0,24.0,30.42,NE,51,10.0,-999.0,72,-99.99,,,-99.99,,2013-04-22 13:22:00,
2013-04-22 09:32:00,32.0,24.0,30.43,East,90,11.0,-999.0,73,-99.99,,,-99.99,,2013-04-22 13:32:00,
2013-04-22 09:42:00,32.0,24.0,30.43,East,90,11.0,-999.0,73,-99.99,,,-99.99,,2013-04-22 13:42:00,
2013-04-22 09:52:00,33.0,25.0,30.42,ENE,70,9.0,-999.0,72,-99.99,,,-99.99,,2013-04-22 13:52:00,
2013-04-22 10:02:00,32.0,24.0,30.43,East,92,12.0,-999.0,72,-99.99,,,-99.99,,2013-04-22 14:02:00,
2013-04-22 10:12:00,32.0,24.0,30.43,East,92,12.0,-999.0,72,-99.99,,,-99.99,,2013-04-22 14:12:00,
2013-04-22 10:21:00,34.0,26.0,30.42,ENE,69,9.0,-999.0,71,-99.99,,,-99.99,,2013-04-22 14:21:00,
2013-04-22 10:33:00,35.0,26.0,30.43,ENE,72,9.0,-999.0,69,-99.99,,,-99.99,,2013-04-22 14:33:00,
2013-04-22 10:42:00,35.0,26.0,30.43,ENE,72,9.0,-999.0,69,-99.99,,,-99.99,,2013-04-22 14:42:00,
2013-04-22 10:52:00,36.0,26.0,30.42,East,82,7.0,-999.0,67,-99.99,,,-99.99,,2013-04-22 14:52:00,
2013-04-22 11:02:00,36.0,25.0,30.42,ENE,59,6.0,-999.0,64,-99.99,,,-99.99,,2013-04-22 15:02:00,
2013-04-22 11:12:00,36.0,25.0,30.42,ENE,59,6.0,-999.0,64,-99.99,,,-99.99,,2013-04-22 15:12:00,
2013-04-22 11:22:00,37.0,25.0,30.42,East,83,6.0,-999.0,61,-99.99,,,-99.99,,2013-04-22 15:22:00,
2013-04-22 11:33:00,38.0,26.0,30.43,ENE,74,5.0,-999.0,61,-99.99,,,-99.99,,2013-04-22 15:33:00,
2013-04-22 11:43:00,38.0,26.0,30.43,ENE,74,5.0,-999.0,61,-99.99,,,-99.99,,2013-04-22 15:43:00,
2013-04-22 11:53:00,39.0,26.0,30.42,East,99,6.0,-999.0,59,-99.99,,,-99.99,,2013-04-22 15:53:00,
2013-04-22 12:03:00,40.0,26.0,30.42,ENE,67,6.0,-999.0,58,-99.99,,,-99.99,,2013-04-22 16:03:00,
2013-04-22 12:12:00,40.0,26.0,30.42,ENE,67,6.0,-999.0,58,-99.99,,,-99.99,,2013-04-22 16:12:00,
2013-04-22 12:23:00,40.0,25.0,30.42,ENE,75,7.0,-999.0,55,-99.99,,,-99.99,,2013-04-22 16:23:00,
2013-04-22 12:33:00,40.0,25.0,30.41,East,82,6.0,-999.0,54,-99.99,,,-99.99,,2013-04-22 16:33:00,
2013-04-22 12:42:00,40.0,25.0,30.41,East,82,6.0,-999.0,54,-99.99,,,-99.99,,2013-04-22 16:42:00,
2013-04-22 12:52:00,42.0,26.0,30.40,ENE,65,6.0,-999.0,52,-99.99,,,-99.99,,2013-04-22 16:52:00,
2013-04-22 13:02:00,42.0,25.0,30.40,East,84,5.0,-999.0,51,-99.99,,,-99.99,,2013-04-22 17:02:00,
2013-04-22 13:12:00,42.0,25.0,30.40,East,84,5.0,-999.0,51,-99.99,,,-99.99,,2013-04-22 17:12:00,
2013-04-22 13:22:00,41.0,25.0,30.40,NE,51,7.0,-999.0,53,-99.99,,,-99.99,,2013-04-22 17:22:00,
2013-04-22 13:32:00,43.0,26.0,30.39,ENE,71,4.0,-999.0,50,-99.99,,,-99.99,,2013-04-22 17:32:00,
2013-04-22 13:42:00,43.0,26.0,30.39,ENE,71,4.0,-999.0,50,-99.99,,,-99.99,,2013-04-22 17:42:00,
2013-04-22 13:52:00,42.0,26.0,30.38,NE,50,7.0,-999.0,52,-99.99,,,-99.99,,2013-04-22 17:52:00,
2013-04-22 14:02:00,43.0,27.0,30.38,ENE,59,5.0,-999.0,52,-99.99,,,-99.99,,2013-04-22 18:02:00,
2013-04-22 14:12:00,43.0,27.0,30.38,ENE,59,5.0,-999.0,52,-99.99,,,-99.99,,2013-04-22 18:12:00,
2013-04-22 14:22:00,44.0,26.0,30.38,SSE,152,6.0,-999.0,48,-99.99,,,-99.99,,2013-04-22 18:22:00,
2013-04-22 14:32:00,45.0,26.0,30.37,ENE,66,5.0,-999.0,47,-99.99,,,-99.99,,2013-04-22 18:32:00,
2013-04-22 14:42:00,45.0,26.0,30.37,ENE,66,5.0,-999.0,47,-99.99,,,-99.99,,2013-04-22 18:42:00,
2013-04-22 14:52:00,44.0,28.0,30.37,ENE,65,8.0,-999.0,52,-99.99,,,-99.99,,2013-04-22 18:52:00,
2013-04-22 15:02:00,44.0,26.0,30.37,ENE,68,6.0,-999.0,48,-99.99,,,-99.99,,2013-04-22 19:02:00,
2013-04-22 15:12:00,44.0,26.0,30.37,ENE,68,6.0,-999.0,48,-99.99,,,-99.99,,2013-04-22 19:12:00,
2013-04-22 15:22:00,45.0,25.0,30.36,NE,43,6.0,-999.0,46,-99.99,,,-99.99,,2013-04-22 19:22:00,
2013-04-22 15:32:00,45.0,23.0,30.36,ENE,64,7.0,-999.0,42,-99.99,,,-99.99,,2013-04-22 19:32:00,
2013-04-22 15:42:00,45.0,23.0,30.36,ENE,64,7.0,-999.0,42,-99.99,,,-99.99,,2013-04-22 19:42:00,
2013-04-22 15:52:00,46.0,24.0,30.35,SW,227,7.0,-999.0,42,-99.99,,,-99.99,,2013-04-22 19:52:00,
2013-04-22 16:02:00,46.0,21.0,30.35,ENE,67,7.0,-999.0,37,-99.99,,,-99.99,,2013-04-22 20:02:00,
2013-04-22 16:11:00,46.0,21.0,30.35,ENE,67,7.0,-999.0,37,-99.99,,,-99.99,,2013-04-22 20:11:00,
2013-04-22 16:22:00,46.0,22.0,30.35,SSE,168,5.0,-999.0,38,-99.99,,,-99.99,,2013-04-22 20:22:00,
2013-04-22 16:32:00,46.0,21.0,30.34,East,88,5.0,-999.0,36,-99.99,,,-99.99,,2013-04-22 20:32:00,
2013-04-22 16:42:00,46.0,21.0,30.34,East,88,5.0,-999.0,36,-99.99,,,-99.99,,2013-04-22 20:42:00,
2013-04-22 16:52:00,46.0,20.0,30.34,SSE,155,6.0,-999.0,35,-99.99,,,-99.99,,2013-04-22 20:52:00,
2013-04-22 17:02:00,46.0,18.0,30.34,East,92,5.0,-999.0,32,-99.99,,,-99.99,,2013-04-22 21:02:00,
2013-04-22 17:12:00,46.0,18.0,30.34,East,92,5.0,-999.0,32,-99.99,,,-99.99,,2013-04-22 21:12:00,
2013-04-22 17:21:00,46.0,17.0,30.33,ENE,71,5.0,-999.0,31,-99.99,,,-99.99,,2013-04-22 21:21:00,
2013-04-22 17:33:00,48.0,18.0,30.34,ENE,69,3.0,-999.0,30,-99.99,,,-99.99,,2013-04-22 21:33:00,
2013-04-22 17:43:00,48.0,18.0,30.34,ENE,69,3.0,-999.0,30,-99.99,,,-99.99,,2013-04-22 21:43:00,
2013-04-22 17:53:00,47.0,17.0,30.33,SE,128,4.0,-999.0,30,-99.99,,,-99.99,,2013-04-22 21:53:00,
2013-04-22 18:03:00,47.0,18.0,30.33,SSW,202,4.0,-999.0,31,-99.99,,,-99.99,,2013-04-22 22:03:00,
2013-04-22 18:12:00,47.0,18.0,30.33,SSW,202,4.0,-999.0,31,-99.99,,,-99.99,,2013-04-22 22:12:00,
2013-04-22 18:22:00,46.0,19.0,30.33,SE,145,5.0,-999.0,33,-99.99,,,-99.99,,2013-04-22 22:22:00,
2013-04-22 18:33:00,45.0,17.0,30.33,ENE,74,5.0,-999.0,32,-99.99,,,-99.99,,2013-04-22 22:33:00,
2013-04-22 18:42:00,45.0,17.0,30.33,ENE,74,5.0,-999.0,32,-99.99,,,-99.99,,2013-04-22 22:42:00,
2013-04-22 18:52:00,44.0,17.0,30.33,ENE,70,6.0,-999.0,33,-99.99,,,-99.99,,2013-04-22 22:52:00,
2013-04-22 19:02:00,44.0,17.0,30.33,East,80,5.0,-999.0,34,-99.99,,,-99.99,,2013-04-22 23:02:00,
2013-04-22 19:11:00,44.0,18.0,30.33,East,81,6.0,-999.0,35,-99.99,,,-99.99,,2013-04-22 23:11:00,
2013-04-22 19:22:00,44.0,18.0,30.33,East,81,6.0,-999.0,35,-99.99,,,-99.99,,2013-04-22 23:22:00,
2013-04-22 19:33:00,43.0,19.0,30.33,ENE,78,5.0,-999.0,37,-99.99,,,-99.99,,2013-04-22 23:33:00,
2013-04-22 19:42:00,43.0,19.0,30.33,ENE,78,5.0,-999.0,37,-99.99,,,-99.99,,2013-04-22 23:42:00,
2013-04-22 19:52:00,42.0,20.0,30.33,ENE,71,6.0,-999.0,41,-99.99,,,-99.99,,2013-04-22 23:52:00,
2013-04-22 20:02:00,41.0,22.0,30.33,East,86,7.0,-999.0,46,-99.99,,,-99.99,,2013-04-23 00:02:00,
2013-04-22 20:12:00,41.0,22.0,30.33,East,86,7.0,-999.0,46,-99.99,,,-99.99,,2013-04-23 00:12:00,
2013-04-22 20:21:00,40.0,22.0,30.33,ENE,71,8.0,-999.0,49,-99.99,,,-99.99,,2013-04-23 00:21:00,
2013-04-22 20:32:00,39.0,22.0,30.33,East,88,7.0,-999.0,50,-99.99,,,-99.99,,2013-04-23 00:32:00,
2013-04-22 20:42:00,39.0,22.0,30.33,East,88,7.0,-999.0,50,-99.99,,,-99.99,,2013-04-23 00:42:00,
2013-04-22 20:51:00,38.0,22.0,30.33,ENE,73,8.0,-999.0,51,-99.99,,,-99.99,,2013-04-23 00:51:00,
2013-04-22 21:01:00,38.0,22.0,30.33,ENE,63,8.0,-999.0,51,-99.99,,,-99.99,,2013-04-23 01:01:00,
2013-04-22 21:11:00,38.0,22.0,30.33,ENE,63,8.0,-999.0,51,-99.99,,,-99.99,,2013-04-23 01:11:00,
2013-04-22 21:21:00,37.0,21.0,30.33,ENE,73,10.0,-999.0,52,-99.99,,,-99.99,,2013-04-23 01:21:00,
2013-04-22 21:32:00,37.0,22.0,30.33,ENE,58,11.0,-999.0,54,-99.99,,,-99.99,,2013-04-23 01:32:00,
2013-04-22 21:42:00,37.0,22.0,30.33,ENE,58,11.0,-999.0,54,-99.99,,,-99.99,,2013-04-23 01:42:00,
2013-04-22 21:52:00,37.0,24.0,30.33,ENE,75,11.0,-999.0,58,-99.99,,,-99.99,,2013-04-23 01:52:00,
2013-04-22 22:02:00,36.0,23.0,30.33,East,82,11.0,-999.0,60,-99.99,,,-99.99,,2013-04-23 02:02:00,
2013-04-22 22:12:00,36.0,23.0,30.33,East,82,11.0,-999.0,60,-99.99,,,-99.99,,2013-04-23 02:12:00,
2013-04-22 22:21:00,35.0,24.0,30.34,East,80,12.0,-999.0,63,-99.99,,,-99.99,,2013-04-23 02:21:00,
2013-04-22 22:32:00,35.0,25.0,30.33,ENE,67,13.0,-999.0,66,-99.99,,,-99.99,,2013-04-23 02:32:00,
2013-04-22 22:42:00,35.0,25.0,30.33,ENE,67,13.0,-999.0,66,-99.99,,,-99.99,,2013-04-23 02:42:00,
2013-04-22 22:52:00,34.0,25.0,30.33,ENE,71,13.0,-999.0,68,-99.99,,,-99.99,,2013-04-23 02:52:00,
2013-04-22 23:02:00,34.0,25.0,30.33,ENE,77,13.0,-999.0,70,-99.99,,,-99.99,,2013-04-23 03:02:00,
2013-04-22 23:11:00,34.0,25.0,30.33,ENE,77,13.0,-999.0,70,-99.99,,,-99.99,,2013-04-23 03:11:00,
2013-04-22 23:12:00,33.0,25.0,30.33,NE,50,11.0,-999.0,72,-99.99,,,-99.99,,2013-04-23 03:12:00,
2013-04-22 23:21:00,34.0,26.0,30.33,ENE,71,12.0,-999.0,71,-99.99,,,-99.99,,2013-04-23 03:21:00,
2013-04-22 23:33:00,33.0,25.0,30.33,NE,50,11.0,-999.0,72,-99.99,,,-99.99,,2013-04-23 03:33:00,
2013-04-22 23:43:00,33.0,25.0,30.33,NE,50,11.0,-999.0,72,-99.99,,,-99.99,,2013-04-23 03:43:00,
2013-04-22 23:53:00,33.0,25.0,30.33,NE,50,11.0,-999.0,72,-99.99,,,-99.99,,2013-04-23 03:53:00,